Regional Weather Roundup
Issued by NWS Mt. Holly, NJ

Home | Current Version | Previous Version | Text Only | Print | Product List | Glossary On
Versions: 1 2 3 4 5 6 7 8 9 10 11 12 13 14 15 16 17 18 19 20 21 22 23 24 25 26 27 28 29 30 31 32 33 34 35 36 37 38 39 40 41 42 43 44 45 46 47 48 49 50
000
ASUS41 KPHI 272210
RWRPHI

REGIONAL WEATHER ROUNDUP
NATIONAL WEATHER SERVICE MOUNT HOLLY NJ
600 PM EDT WED AUG 27 2014

NOTE:  "FAIR" INDICATES FEW OR NO CLOUDS BELOW 12,000 FEET WITH NO
SIGNIFICANT WEATHER AND/OR OBSTRUCTIONS TO VISIBILITY.

 * = STATION DOES NOT REPORT PRECIPITATION (E.G. RAIN, SNOW, ETC.)
        OR FOG.

NJZ015>026-272300-
SOUTHERN NEW JERSEY

CITY           SKY/WX    TMP DP  RH WIND       PRES   REMARKS
POMONA         SUNNY     81  65  58 S10       29.92S
RIO GRANDE*    SUNNY     82  59  44 SW5       29.94S
MILLVILLE      SUNNY     85  64  49 W8        29.93S
WRIGHTSTOWN    SUNNY     86  66  50 SW9       29.88F
MOUNT HOLLY    SUNNY     86  67  52 CALM      29.90F
TRENTON        MOSUNNY   88  65  46 SW6       29.89F HX  90

$$
NJZ001>014-272300-
NORTHERN NEW JERSEY

CITY           SKY/WX    TMP DP  RH WIND       PRES   REMARKS
SUSSEX         TSTM      77  67  71 W8G22     29.92R
ANDOVER*         N/A     85  67  54 SW7       29.91S
MORRISTOWN     MOSUNNY   90  66  45 W9        29.89F HX  92
NEWARK         MOSUNNY   91  64  40 SW9G17    29.87F HX  92
TETERBORO      MOSUNNY   91  65  41 W10       29.86S HX  93
CALDWELL       SUNNY     88  66  48 SW6       29.88F HX  90
SOMERVILLE     SUNNY     89  67  47 VRB5      29.87F HX  92
ALLAIRE*       SUNNY     82  64  54 S6        29.91S
TOMS RIVER*    SUNNY     88  61  40 SW5       29.90F

$$
PAZ043-044-047-054-055-060>062-066>071-272300-
EASTERN PENNSYLVANIA

CITY           SKY/WX    TMP DP  RH WIND       PRES   REMARKS
PHILADELPHIA   MOSUNNY   88  65  46 SW10      29.91S HX  90
NORTH PHILA    SUNNY     89  64  43 W9        29.91F HX  90
BLUE BELL      SUNNY     88  68  51 SW3       29.90F HX  91
DOYLESTOWN     SUNNY     87  66  49 VRB6      29.90F
QUAKERTOWN*    SUNNY     86  68  54 MISG      29.93F
POTTSTOWN      SUNNY     86  66  51 SW8       29.93F
LANCASTER      SUNNY     86  65  49 W9        29.92F
COATESVILLE    SUNNY     84  68  58 SW3       29.95F
READING        SUNNY     88  68  51 W8        29.91S HX  91
ALLENTOWN      SUNNY     87  68  52 W10       29.91F HX  90
MOUNT POCONO   CLOUDY    82  66  58 NW7       29.98F
HAZLETON       SUNNY     82  66  57 W3        30.00F
WILKES BARRE   PTSUNNY   83  67  58 NW6       29.92F

$$
DEZALL-MDZ008-012-015-019-020-272300-
DELAWARE AND EASTERN MARYLAND

CITY           SKY/WX    TMP DP  RH WIND       PRES   REMARKS
WILMINGTON     SUNNY     86  67  52 SW8       29.92F
DOVER          SUNNY     83  67  58 E8        29.92F
GEORGETOWN     SUNNY     86  61  42 S6        29.94S
EASTON         SUNNY     88  63  42 NW6       29.98S
PATUXENT       MOSUNNY   83  64  52 SW6       29.94F
OCEAN CITY     SUNNY     77  64  64 SE5       29.95S
WALLOPS ISLAND SUNNY     80  65  59 S7        29.95F
CAMBRIDGE      SUNNY     84  52  32 W3        29.94S
SALISBURY      SUNNY     85  67  54 SE10      29.94S

$$
PAZ001-021-NYZ056-072-MDZ011-DCZ001-272300-
OTHER NEARBY LOCATIONS

CITY           SKY/WX    TMP DP  RH WIND       PRES   REMARKS
HARRISBURG     MOSUNNY   87  72  60 SW7       29.91F HX  93
STATE COLLEGE  MOSUNNY   84  68  58 W7        29.97S
WILLIAMSPORT   PTSUNNY   88  68  51 W8        29.90S HX  91
BINGHAMTON     PTSUNNY   74  66  76 N7        30.00S
NEW YORK CITY  SUNNY     86  64  47 VRB3      29.90F
BALTIMORE      MOSUNNY   88  65  46 W5        29.92F HX  90
WASHINGTON DC  MOSUNNY   89  65  44 CALM      29.94F HX  91

$$


USA.gov is the U.S. government's official web portal to all federal, state and local government web resources and services.